Flag for U.S.A. Weather past 2 weeks in Billings, Montana, U.S.A.

Now
71 °F

Passing clouds.


Feels Like: 76 °F
Forecast: 53 / 73 °F
Wind: 9 mph from Northeast

Location: Billings Logan International Airport

Current Time: Sep 20, 2014 at 12:49:24 PM

Latest Report: Sep 20, 2014 at 11:53 AM


Visibility: 10 mi

Pressure: 30.19 "Hg

Humidity: 31%

Dew point: 39 °F

Location of BillingsLocation

Historic Weather in Billings — Graph

°F

Billings temperature yesterday

Maximum temperature yesterday: 78 °F (at 2:53 PM)
Minimum temperature yesterday: 59 °F (at 4:53 AM)
Average temperature yesterday: 67 °F

Past Weeks' High & Low Weather Summary

 TemperatureHumidityPressure
High89 °F (Sep 8, 2:53 PM)97% (Sep 9, 11:53 PM)30.58 "Hg (Sep 9, 11:53 PM)
Low30 °F (Sep 12, 3:45 AM)8% (Sep 8, 2:53 PM)29.62 "Hg (Sep 8, 3:53 PM)
Average57 °F56%30.04 "Hg
* Reported Sep 5 6:53 AM — Sep 20 6:53 AM, Billings, Weather by CustomWeather, © 2014

Note: Actual official high and low records may vary slightly from our data, if they occured in-between our weather recording intervals... More about our weather records

Advertising

Billings weather history for previous 24 hours

 ConditionsComfort  
Time TempWeatherWind HumidityBarometerVisibility
6:53 AM
Sep 20
55 °FPassing clouds.14 mph59%30.11 "Hg10 mi
5:53 AM55 °FClear.12 mph59%30.09 "Hg10 mi
4:53 AM57 °FClear.12 mph55%30.06 "Hg10 mi
3:53 AM56 °FClear.9 mph62%30.04 "Hg10 mi
2:53 AM60 °FClear.9 mph49%30.01 "Hg10 mi
1:53 AM59 °FClear.8 mph56%30.01 "Hg10 mi
12:53 AM60 °FClear.9 mph52%29.98 "Hg10 mi
11:53 PM
Sep 19
60 °FClear.10 mph56%29.97 "Hg10 mi
10:53 PM61 °FClear.12 mph54%29.96 "Hg10 mi
9:53 PM60 °FPassing clouds.7 mph58%29.95 "Hg10 mi
8:53 PM66 °FPassing clouds.7 mph45%29.93 "Hg10 mi
7:53 PM69 °FScattered clouds.6 mph39%29.90 "Hg10 mi
6:53 PM74 °FScattered clouds.3 mph33%29.88 "Hg10 mi
5:53 PM74 °FPartly sunny.9 mph32%29.86 "Hg10 mi
4:53 PM74 °FScattered clouds.14 mph33%29.85 "Hg10 mi
3:53 PM76 °FScattered clouds.17 mph30%29.83 "Hg10 mi
2:53 PM78 °FScattered clouds.15 mph28%29.82 "Hg10 mi
1:53 PM77 °FScattered clouds.21 mph31%29.81 "Hg10 mi
12:53 PM77 °FBroken clouds.17 mph33%29.82 "Hg10 mi
Weather by CustomWeather, © 2014

See weather overviewHow to use our weather pages